Weather in Shklov

Belarus     54°12′30″N   30°17′28″E
temp.,
°C
wind,
m/s
gust,
m/s
humid.,
%
clouds,
%
prec.,
mm/h
press.,
hPa
HPBL,
m
25 january, mon
mon2500:00+3sse61599100 0.3 1001370
03:00+2s51299100 0.6 1002287
06:00+2s5999100 0.0 1003249
09:00+2sse3799100 0.0 1003143
12:00+2se48100100 0.0 1004237
15:00+2ese4999100 0.0 1002258
18:00+2se61298100 0.0 1002444
21:00+2se61496100 0.1 1000464
26 january, tue
tue2600:00+3ese81696100 0.4 998517
03:00+4se81795100 1.9 996553
06:00+4se81794100 1.1 994571
09:00+3ese81595100 3.1 992633
12:00+3ese101793100 0.4 991715
15:00+1sse91497100 1.4 991705
18:000s91495100 1.1 992877
21:000s91592100 1.4 992995
27 january, wed
wed2700:00−1s111794100 0.8 9931118
03:00−1sw111894100 2.9 9931184
06:00−1sw101694100 1.4 9961049
09:00−1wsw91590100 2.1 999899
12:00−1sw8118994 0.1 1002890
15:00−1sw599097 0.1 1003700
18:00−1ssw4893100 0.1 1003429
21:00−2ssw3596100 0.1 1003205
28 january, thu
thu2800:00−3sw2297100 0.0 100244
03:00−4ssw0197100 0.1 100121
06:00−3n129798 0.0 100038
09:00−3n249699 0.0 998189
12:00−2n3595100 0.3 997303
15:00−1n469799 1.4 995399
18:00−2n4797100 0.8 993338
21:00−1w1299100 2.0 992180
29 january, fri
fri2900:00−2sw589799 1.1 992390
03:00−3ssw61096100 2.0 993450
06:00−3sw61194100 0.3 994522
09:00−4ssw61194100 0.4 995509
12:00−3sw6993100 0.1 997629
15:00−3sw5788100 0.4 998731
18:00−4ssw4792100 0.1 1000490
21:00−5s3693100 0.2 1000294